Regional Weather Roundup
Issued by NWS

Home | Current Version | Previous Version | Graphics & Text | Print | Product List | Glossary On
Versions: 1 2 3 4 5 6 7 8 9 10 11 12 13 14 15 16 17 18 19 20 21 22 23 24 25 26 27 28 29 30 31 32 33 34 35 36 37 38 39 40 41 42 43 44 45 46 47 48 49 50
000
ASUS43 KLOT 230310
RWRIL

ILLINOIS REGIONAL WEATHER ROUNDUP
NATIONAL WEATHER SERVICE CHICAGO/ROMEOVILLE IL
1000 PM CDT MON SEP 22 2014

NOTE: "FAIR" INDICATES FEW OR NO CLOUDS BELOW 12,000 FEET WITH NO
SIGNIFICANT WEATHER AND/OR OBSTRUCTIONS TO VISIBILITY.

* THESE STATIONS ARE NOT UNDER NWS QUALITY CONTROL. THEY ALSO MAY NOT
  REPORT WEATHER SUCH AS PRECIPITATION OR FOG.

ILZ001-002-007-009-015-016-024-230400-
NORTHWEST ILLINOIS

CITY           SKY/WX    TMP DP  RH WIND       PRES   REMARKS
MOLINE         CLEAR     50  47  89 CALM      30.26R
STERLING*      CLEAR     50  43  76 W3        30.27R
SAVANNA*       CLEAR     52  48  86 SE5       30.26R
$$

ILZ003-004-008-010-011-017-018-230400-
NORTH CENTRAL ILLINOIS

CITY           SKY/WX    TMP DP  RH WIND       PRES   REMARKS
ROCKFORD       CLEAR     54  47  77 CALM      30.28R
FREEPORT*      CLEAR     49  45  84 SW5       30.28R
ROCHELLE*      CLEAR     47  45  92 CALM      30.27R
DE KALB*       CLEAR     51  44  76 SW3       30.27R
PERU*          CLEAR     55  47  77 CALM      30.28R
$$

ILZ005-006-012>014-019>023-230400-
NORTHEAST ILLINOIS

CITY           SKY/WX    TMP DP  RH WIND       PRES   REMARKS
CHICAGO-OHARE  CLEAR     57  46  66 S6        30.26R
CHICAGO-MIDWAY CLEAR     59  44  57 S6        30.26R
AURORA         CLEAR     48  44  86 CALM      30.27R
LANSING*       CLEAR     50  46  84 CALM      30.27R
JOLIET*        CLEAR     49  47  94 CALM      30.27S
WAUKEGAN       FAIR      50  48  93 SW3       30.24R
DUPAGE AIRPORT CLEAR     52  48  86 CALM      30.25R
KANKAKEE*      CLEAR     49  47  93 CALM      30.28S
WHEELING       CLEAR     54  46  74 SE3       30.27R
MORRIS*        CLEAR     53  47  80 CALM      30.26S
ROMEOVILLE*    CLEAR     51  46  85 SE3       30.27R
NORTHERLY ISL    N/A     57  42  57 S3          N/A
$$

LMZ740>746-230400-
SOUTHERN LAKE MICHIGAN

STATION/POSITION SKY/WX   TEMP    WIND        PRES    VSBY  WAVE
                          AIR SEA DIR/SP/G                  HT/PER
                          (F)     (DEG/KT/KT) (MB)    (MI)  (FT/S)
SOUTHERN BUOY              61 62  190/ 12/ 14 1024.4R         1/ 3
WAUKEGAN HARBOR            56     200/  5/  6   N/A
BURNHAM HARBOR             57     160/  4/  4   N/A
CALUMET HARBOR             57     170/  4/  5 1023.5R
MICHIGAN CITY 6N           58 64  160/ 10/ 12   N/A           2/ 4
ST. JOSEPH                 58 65  140/  8/ 12   N/A           1/ 6
$$

ILZ025>027-034>036-040-047-049-050-058-095>099-230400-
WEST-CENTRAL ILLINOIS

CITY           SKY/WX    TMP DP  RH WIND       PRES   REMARKS
QUINCY         CLEAR     56  48  74 CALM      30.26S
GALESBURG*     CLEAR    N/A N/A N/A CALM      30.28R
MACOMB*        CLEAR     47  46  93 CALM      30.29S
JACKSONVILLE*  CLEAR     53  49  87 CALM      30.28S
PITTSFIELD*    CLEAR     53  49  87 CALM      30.28S
$$

ILZ028>032-037-038-041>044-048-051>054-059>061-230400-
CENTRAL ILLINOIS

CITY           SKY/WX    TMP DP  RH WIND       PRES   REMARKS
PONTIAC        CLEAR     48  48 100 CALM      30.27R
BLOOMINGTON    CLEAR     57  46  66 CALM      30.29R
DECATUR        CLEAR     53  45  74 CALM      30.28R
PEORIA         CLEAR     54  49  83 CALM      30.27S
LACON*         CLEAR     49  45  86 CALM      30.27R
LINCOLN*       CLEAR     52  47  82 CALM      30.26R
SPRINGFIELD    CLEAR     51  47  86 CALM      30.27S
TAYLORVILLE    CLEAR     50  48  93 CALM      30.27R
$$

ILZ033-039-045-046-055>057-062-063-230400-
EAST-CENTRAL ILLINOIS

CITY           SKY/WX    TMP DP  RH WIND       PRES   REMARKS
CHAMPAIGN      CLEAR     50  45  83 NE5       30.27S
DANVILLE*      CLEAR     49  46  87 E5        30.25S
RANTOUL*       CLEAR     55  46  70 CALM      30.28R
MATTOON        CLEAR     53  48  83 CALM      30.26R
PARIS*         CLEAR     47  47  98 CALM      30.27S
$$

ILZ079-100>102-230400-
SOUTHWEST ILLINOIS

CITY           SKY/WX    TMP DP  RH WIND       PRES   REMARKS
ALTON          CLEAR     55  48  76 W6        30.26S
BELLEVILLE     CLEAR     54  50  87 CALM      30.26R FOG
CAHOKIA*       CLEAR     52  50  93 CALM      30.26R
SPARTA*        CLEAR     54  49  82 CALM      30.27R
$$

ILZ064>066-069>071-074>076-080>082-084>086-088>090-092>094-230400-
SOUTH-CENTRAL ILLINOIS

CITY           SKY/WX    TMP DP  RH WIND       PRES   REMARKS
CARBONDALE     CLEAR     52  50  93 CALM      30.25R
CAIRO*         CLEAR     54  49  82 CALM      30.24S
EFFINGHAM*     CLEAR     51  48  89 CALM      30.26S
MARION         CLEAR     54  48  82 CALM      30.26S
MT. VERNON     CLEAR     48  43  81 CALM      30.26S
CENTRALIA*     CLEAR     50  47  91 CALM      30.26S
SALEM*         CLEAR     52  51  97 CALM      30.26S
METROPOLIS*    CLEAR     49  49  98 CALM      30.24R
$$

ILZ067-068-072-073-078-083-087-091-230400-
SOUTHEAST ILLINOIS

CITY           SKY/WX    TMP DP  RH WIND       PRES   REMARKS
LAWRENCEVILLE  CLEAR     50  47  89 CALM      30.26S
FLORA*         CLEAR     50  47  87 CALM      30.27R
FAIRFIELD*     CLEAR    N/A N/A N/A CALM      30.26R
HARRISBURG*    CLEAR     51  49  93 CALM      30.26S
ROBINSON*      CLEAR     49  48  97 CALM      30.27S
CARMI*         CLEAR     51  50  98 CALM      30.25S
$$

ABBREVIATIONS USED IN REMARKS
   TC - TEMPERATURE IN CELSIUS
  WCI - WIND CHILL INDEX
   HX - HEAT INDEX
  VSB - VISIBILITY
$$



USA.gov is the U.S. government's official web portal to all federal, state and local government web resources and services.